Year,Month,Day,Hour,Minute,Value (Times are PST for temperature in C)
2019,03,18,00,00,4.90
2019,03,18,00,01,4.90
2019,03,18,00,02,4.80
2019,03,18,00,03,4.80
2019,03,18,00,04,4.80
2019,03,18,00,05,4.80
2019,03,18,00,06,4.70
2019,03,18,00,07,4.70
2019,03,18,00,08,4.70
2019,03,18,00,09,4.70
2019,03,18,00,10,4.70
2019,03,18,00,11,4.70
2019,03,18,00,12,4.60
2019,03,18,00,13,4.60
2019,03,18,00,14,4.60
2019,03,18,00,15,4.60
2019,03,18,00,16,4.60
2019,03,18,00,17,4.60
2019,03,18,00,18,4.60
2019,03,18,00,19,4.60
2019,03,18,00,20,4.60
2019,03,18,00,21,4.60
2019,03,18,00,22,4.60
2019,03,18,00,23,4.70
2019,03,18,00,24,4.70
2019,03,18,00,25,4.70
2019,03,18,00,26,4.70
2019,03,18,00,27,4.70
2019,03,18,00,28,4.60
2019,03,18,00,29,4.60
2019,03,18,00,30,4.60
2019,03,18,00,31,4.60
2019,03,18,00,32,4.60
2019,03,18,00,33,4.60
2019,03,18,00,34,4.60
2019,03,18,00,35,4.60
2019,03,18,00,36,4.60
2019,03,18,00,37,4.60
2019,03,18,00,38,4.60
2019,03,18,00,39,4.60
2019,03,18,00,40,4.60
2019,03,18,00,41,4.60
2019,03,18,00,42,4.60
2019,03,18,00,43,4.60
2019,03,18,00,44,4.60
2019,03,18,00,45,4.70
2019,03,18,00,46,4.70
2019,03,18,00,47,4.70
2019,03,18,00,48,4.70
2019,03,18,00,49,4.70
2019,03,18,00,50,4.70
2019,03,18,00,51,4.70
2019,03,18,00,52,4.70
2019,03,18,00,53,4.70
2019,03,18,00,54,4.60
2019,03,18,00,55,4.60
2019,03,18,00,56,4.60
2019,03,18,00,57,4.60
2019,03,18,00,58,4.50
2019,03,18,00,59,4.50
2019,03,18,01,00,4.50
2019,03,18,01,01,4.40
2019,03,18,01,02,4.40
2019,03,18,01,03,4.40
2019,03,18,01,04,4.30
2019,03,18,01,05,4.30
2019,03,18,01,06,4.20
2019,03,18,01,07,4.20
2019,03,18,01,08,4.20
2019,03,18,01,09,4.20
2019,03,18,01,10,4.10
2019,03,18,01,11,4.10
2019,03,18,01,12,4.10
2019,03,18,01,13,4.10
2019,03,18,01,14,4.10
2019,03,18,01,15,4.10
2019,03,18,01,16,4.10
2019,03,18,01,17,4.00
2019,03,18,01,18,4.00
2019,03,18,01,19,4.00
2019,03,18,01,20,4.00
2019,03,18,01,21,4.00
2019,03,18,01,22,4.00
2019,03,18,01,23,3.90
2019,03,18,01,24,3.90
2019,03,18,01,25,3.90
2019,03,18,01,26,3.90
2019,03,18,01,27,3.90
2019,03,18,01,28,3.90
2019,03,18,01,29,3.90
2019,03,18,01,30,3.90
2019,03,18,01,31,3.90
2019,03,18,01,32,4.00
2019,03,18,01,33,4.00
2019,03,18,01,34,4.00
2019,03,18,01,35,4.00
2019,03,18,01,36,4.00
2019,03,18,01,37,4.00
2019,03,18,01,38,4.00
2019,03,18,01,39,4.00
2019,03,18,01,40,4.00
2019,03,18,01,41,4.00
2019,03,18,01,42,3.90
2019,03,18,01,43,3.90
2019,03,18,01,44,3.80
2019,03,18,01,45,3.80
2019,03,18,01,46,3.80
2019,03,18,01,47,3.80
2019,03,18,01,48,3.70
2019,03,18,01,49,3.70
2019,03,18,01,50,3.70
2019,03,18,01,51,3.70
2019,03,18,01,52,3.70
2019,03,18,01,53,3.70
2019,03,18,01,54,3.70
2019,03,18,01,55,3.70
2019,03,18,01,56,3.70
2019,03,18,01,57,3.70
2019,03,18,01,58,3.70
2019,03,18,01,59,3.70
2019,03,18,02,00,3.70
2019,03,18,02,01,3.70
2019,03,18,02,02,3.70
2019,03,18,02,03,3.70
2019,03,18,02,04,3.70
2019,03,18,02,05,3.70
2019,03,18,02,06,3.70
2019,03,18,02,07,3.70
2019,03,18,02,08,3.70
2019,03,18,02,09,3.70
2019,03,18,02,10,3.60
2019,03,18,02,11,3.60
2019,03,18,02,12,3.60
2019,03,18,02,13,3.50
2019,03,18,02,14,3.50
2019,03,18,02,15,3.40
2019,03,18,02,16,3.40
2019,03,18,02,17,3.40
2019,03,18,02,18,3.30
2019,03,18,02,19,3.30
2019,03,18,02,20,3.30
2019,03,18,02,21,3.30
2019,03,18,02,22,3.30
2019,03,18,02,23,3.30
2019,03,18,02,24,3.30
2019,03,18,02,25,3.30
2019,03,18,02,26,3.30
2019,03,18,02,27,3.30
2019,03,18,02,28,3.20
2019,03,18,02,29,3.20
2019,03,18,02,30,3.20
2019,03,18,02,31,3.20
2019,03,18,02,32,3.20
2019,03,18,02,33,3.20
2019,03,18,02,34,3.10
2019,03,18,02,35,3.10
2019,03,18,02,36,3.10
2019,03,18,02,37,3.10
2019,03,18,02,38,3.10
2019,03,18,02,39,3.10
2019,03,18,02,40,3.10
2019,03,18,02,41,3.10
2019,03,18,02,42,3.10
2019,03,18,02,43,3.10
2019,03,18,02,44,3.20
2019,03,18,02,45,3.20
2019,03,18,02,46,3.20
2019,03,18,02,47,3.20
2019,03,18,02,48,3.20
2019,03,18,02,49,3.20
2019,03,18,02,50,3.20
2019,03,18,02,51,3.20
2019,03,18,02,52,3.10
2019,03,18,02,53,3.10
2019,03,18,02,54,3.10
2019,03,18,02,55,3.10
2019,03,18,02,56,3.10
2019,03,18,02,57,3.10
2019,03,18,02,58,3.10
2019,03,18,02,59,3.10
2019,03,18,03,00,3.10
2019,03,18,03,01,3.10
2019,03,18,03,02,3.10
2019,03,18,03,03,3.10
2019,03,18,03,04,3.10
2019,03,18,03,05,3.10
2019,03,18,03,06,3.10
2019,03,18,03,07,3.10
2019,03,18,03,08,3.10
2019,03,18,03,09,3.10
2019,03,18,03,10,3.10
2019,03,18,03,11,3.10
2019,03,18,03,12,3.10
2019,03,18,03,13,3.00
2019,03,18,03,14,2.90
2019,03,18,03,15,2.90
2019,03,18,03,16,2.90
2019,03,18,03,17,2.90
2019,03,18,03,18,2.90
2019,03,18,03,19,2.90
2019,03,18,03,20,3.10
2019,03,18,03,21,3.10
2019,03,18,03,22,3.10
2019,03,18,03,23,3.10
2019,03,18,03,24,3.10
2019,03,18,03,25,3.10
2019,03,18,03,26,3.10
2019,03,18,03,27,3.10
2019,03,18,03,28,3.10
2019,03,18,03,29,3.10
2019,03,18,03,30,3.10
2019,03,18,03,31,3.10
2019,03,18,03,32,3.10
2019,03,18,03,33,3.10
2019,03,18,03,34,3.00
2019,03,18,03,35,2.90
2019,03,18,03,36,2.90
2019,03,18,03,37,2.90
2019,03,18,03,38,2.90
2019,03,18,03,39,2.90
2019,03,18,03,40,2.90
2019,03,18,03,41,2.90
2019,03,18,03,42,2.90
2019,03,18,03,43,2.90
2019,03,18,03,44,3.00
2019,03,18,03,45,3.10
2019,03,18,03,46,3.10
2019,03,18,03,47,3.10
2019,03,18,03,48,3.10
2019,03,18,03,49,3.10
2019,03,18,03,50,3.10
2019,03,18,03,51,3.20
2019,03,18,03,52,3.10
2019,03,18,03,53,3.10
2019,03,18,03,54,3.10
2019,03,18,03,55,3.10
2019,03,18,03,56,3.00
2019,03,18,03,57,2.90
2019,03,18,03,58,2.90
2019,03,18,03,59,2.90
2019,03,18,04,00,2.90
2019,03,18,04,01,2.90
2019,03,18,04,02,2.90
2019,03,18,04,03,2.90
2019,03,18,04,04,2.90
2019,03,18,04,05,2.80
2019,03,18,04,06,2.80
2019,03,18,04,07,2.80
2019,03,18,04,08,2.80
2019,03,18,04,09,2.70
2019,03,18,04,10,2.70
2019,03,18,04,11,2.70
2019,03,18,04,12,2.70
2019,03,18,04,13,2.70
2019,03,18,04,14,2.70
2019,03,18,04,15,2.70
2019,03,18,04,16,2.70
2019,03,18,04,17,2.70
2019,03,18,04,18,2.70
2019,03,18,04,19,2.70
2019,03,18,04,20,2.90
2019,03,18,04,21,2.90
2019,03,18,04,22,2.90
2019,03,18,04,23,2.90
2019,03,18,04,24,2.90
2019,03,18,04,25,2.90
2019,03,18,04,26,2.90
2019,03,18,04,27,2.90
2019,03,18,04,28,2.90
2019,03,18,04,29,2.90
2019,03,18,04,30,2.80
2019,03,18,04,31,2.80
2019,03,18,04,32,2.80
2019,03,18,04,33,2.80
2019,03,18,04,34,3.00
2019,03,18,04,35,3.10
2019,03,18,04,36,3.20
2019,03,18,04,37,3.30
2019,03,18,04,38,3.30
2019,03,18,04,39,3.30
2019,03,18,04,40,3.20
2019,03,18,04,41,3.30
2019,03,18,04,42,3.30
2019,03,18,04,43,3.30
2019,03,18,04,44,3.30
2019,03,18,04,45,3.30
2019,03,18,04,46,3.30
2019,03,18,04,47,3.40
2019,03,18,04,48,3.60
2019,03,18,04,49,3.80
2019,03,18,04,50,3.90
2019,03,18,04,51,4.10
2019,03,18,04,52,4.20
2019,03,18,04,53,4.20
2019,03,18,04,54,4.20
2019,03,18,04,55,4.10
2019,03,18,04,56,4.00
2019,03,18,04,57,3.90
2019,03,18,04,58,3.90
2019,03,18,04,59,4.00
2019,03,18,05,00,4.00
2019,03,18,05,01,3.90
2019,03,18,05,02,3.90
2019,03,18,05,03,3.80
2019,03,18,05,04,3.80
2019,03,18,05,05,3.80
2019,03,18,05,06,3.70
2019,03,18,05,07,3.70
2019,03,18,05,08,3.80
2019,03,18,05,09,3.90
2019,03,18,05,10,4.00
2019,03,18,05,11,4.20
2019,03,18,05,12,4.20
2019,03,18,05,13,4.20
2019,03,18,05,14,4.20
2019,03,18,05,15,4.30
2019,03,18,05,16,4.40
2019,03,18,05,17,4.50
2019,03,18,05,18,4.60
2019,03,18,05,19,4.70
2019,03,18,05,20,4.80
2019,03,18,05,21,5.00
2019,03,18,05,22,5.10
2019,03,18,05,23,5.10
2019,03,18,05,24,5.20
2019,03,18,05,25,5.30
2019,03,18,05,26,5.30
2019,03,18,05,27,5.30
2019,03,18,05,28,5.30
2019,03,18,05,29,5.30
2019,03,18,05,30,5.40
2019,03,18,05,31,5.50
2019,03,18,05,32,5.60
2019,03,18,05,33,5.70
2019,03,18,05,34,5.80
2019,03,18,05,35,5.90
2019,03,18,05,36,5.90
2019,03,18,05,37,5.80
2019,03,18,05,38,5.80
2019,03,18,05,39,5.80
2019,03,18,05,40,5.80
2019,03,18,05,41,5.70
2019,03,18,05,42,5.70
2019,03,18,05,43,5.70
2019,03,18,05,44,5.70
2019,03,18,05,45,5.80
2019,03,18,05,46,5.80
2019,03,18,05,47,5.90
2019,03,18,05,48,6.00
2019,03,18,05,49,6.10
2019,03,18,05,50,6.20
2019,03,18,05,51,6.20
2019,03,18,05,52,6.30
2019,03,18,05,53,6.40
2019,03,18,05,54,6.50
2019,03,18,05,55,6.60
2019,03,18,05,56,6.60
2019,03,18,05,57,6.70
2019,03,18,05,58,6.80
2019,03,18,05,59,6.80
2019,03,18,06,00,6.90
2019,03,18,06,01,6.90
2019,03,18,06,02,7.00
2019,03,18,06,03,7.00
2019,03,18,06,04,7.00
2019,03,18,06,05,7.00
2019,03,18,06,06,7.00
2019,03,18,06,07,6.80
2019,03,18,06,08,6.80
2019,03,18,06,09,6.70
2019,03,18,06,10,6.70
2019,03,18,06,11,6.60
2019,03,18,06,12,6.50
2019,03,18,06,13,6.40
2019,03,18,06,14,6.20
2019,03,18,06,15,5.90
2019,03,18,06,16,5.70
2019,03,18,06,17,5.60
2019,03,18,06,18,5.50
2019,03,18,06,19,5.50
2019,03,18,06,20,5.40
2019,03,18,06,21,5.30
2019,03,18,06,22,5.30
2019,03,18,06,23,5.20
2019,03,18,06,24,5.20
2019,03,18,06,25,5.10
2019,03,18,06,26,5.10
2019,03,18,06,27,5.10
2019,03,18,06,28,5.10
2019,03,18,06,29,5.10
2019,03,18,06,30,5.10
2019,03,18,06,31,5.10
2019,03,18,06,32,5.10
2019,03,18,06,33,5.10
2019,03,18,06,34,5.10
2019,03,18,06,35,5.10
2019,03,18,06,36,5.20
2019,03,18,06,37,5.30
2019,03,18,06,38,5.30
2019,03,18,06,39,5.30
2019,03,18,06,40,5.20
2019,03,18,06,41,5.20
2019,03,18,06,42,5.10
2019,03,18,06,43,5.00
2019,03,18,06,44,4.90
2019,03,18,06,45,4.80
2019,03,18,06,46,4.70
2019,03,18,06,47,4.60
2019,03,18,06,48,4.60
2019,03,18,06,49,4.60
2019,03,18,06,50,4.60
2019,03,18,06,51,4.50
2019,03,18,06,52,4.50
2019,03,18,06,53,4.60
2019,03,18,06,54,4.60
2019,03,18,06,55,4.60
2019,03,18,06,56,4.60
2019,03,18,06,57,4.50
2019,03,18,06,58,4.50
2019,03,18,06,59,4.40
2019,03,18,07,00,4.40
2019,03,18,07,01,4.40
2019,03,18,07,02,4.30
2019,03,18,07,03,4.30
2019,03,18,07,04,4.30
2019,03,18,07,05,4.20
2019,03,18,07,06,4.20
2019,03,18,07,07,4.20
2019,03,18,07,08,4.10
2019,03,18,07,09,4.10
2019,03,18,07,10,4.10
2019,03,18,07,11,4.00
2019,03,18,07,12,4.00
2019,03,18,07,13,4.00
2019,03,18,07,14,3.90
2019,03,18,07,15,3.80
2019,03,18,07,16,3.80
2019,03,18,07,17,3.80
2019,03,18,07,18,3.80
2019,03,18,07,19,3.70
2019,03,18,07,20,3.70
2019,03,18,07,21,3.60
2019,03,18,07,22,3.60
2019,03,18,07,23,3.60
2019,03,18,07,24,3.50
2019,03,18,07,25,3.50
2019,03,18,07,26,3.40
2019,03,18,07,27,3.40
2019,03,18,07,28,3.40
2019,03,18,07,29,3.40
2019,03,18,07,30,3.40
2019,03,18,07,31,3.50
2019,03,18,07,32,3.50
2019,03,18,07,33,3.50
2019,03,18,07,34,3.60
2019,03,18,07,35,3.60
2019,03,18,07,36,3.70
2019,03,18,07,37,3.70
2019,03,18,07,38,3.80
2019,03,18,07,39,3.80
2019,03,18,07,40,3.90
2019,03,18,07,41,3.90
2019,03,18,07,42,3.90
2019,03,18,07,43,3.90
2019,03,18,07,44,3.90
2019,03,18,07,45,4.00
2019,03,18,07,46,4.00
2019,03,18,07,47,4.00
2019,03,18,07,48,4.00
2019,03,18,07,49,4.10
2019,03,18,07,50,4.10
2019,03,18,07,51,4.10
2019,03,18,07,52,4.10
2019,03,18,07,53,4.10
2019,03,18,07,54,4.20
2019,03,18,07,55,4.20
2019,03,18,07,56,4.30
2019,03,18,07,57,4.30
2019,03,18,07,58,4.40
2019,03,18,07,59,4.40
2019,03,18,08,00,4.40
2019,03,18,08,01,4.50
2019,03,18,08,02,4.50
2019,03,18,08,03,4.50
2019,03,18,08,04,4.50
2019,03,18,08,05,4.60
2019,03,18,08,06,4.60
2019,03,18,08,07,4.60
2019,03,18,08,08,4.60
2019,03,18,08,09,4.70
2019,03,18,08,10,4.70
2019,03,18,08,11,4.80
2019,03,18,08,12,4.90
2019,03,18,08,13,5.10
2019,03,18,08,14,5.10
2019,03,18,08,15,5.30
2019,03,18,08,16,5.40
2019,03,18,08,17,5.50
2019,03,18,08,18,5.50
2019,03,18,08,19,5.60
2019,03,18,08,20,5.60
2019,03,18,08,21,5.60
2019,03,18,08,22,5.70
2019,03,18,08,23,5.70
2019,03,18,08,24,5.70
2019,03,18,08,25,5.80
2019,03,18,08,26,5.90
2019,03,18,08,27,6.00
2019,03,18,08,28,6.10
2019,03,18,08,29,6.20
2019,03,18,08,30,6.30
2019,03,18,08,31,6.50
2019,03,18,08,32,6.60
2019,03,18,08,33,6.80
2019,03,18,08,34,6.90
2019,03,18,08,35,7.20
2019,03,18,08,36,7.40
2019,03,18,08,37,7.60
2019,03,18,08,38,7.70
2019,03,18,08,39,7.80
2019,03,18,08,40,7.90
2019,03,18,08,41,8.00
2019,03,18,08,42,8.20
2019,03,18,08,43,8.30
2019,03,18,08,44,8.40
2019,03,18,08,45,8.50
2019,03,18,08,46,8.50
2019,03,18,08,47,8.60
2019,03,18,08,48,8.60
2019,03,18,08,49,8.70
2019,03,18,08,50,8.70
2019,03,18,08,51,8.70
2019,03,18,08,52,8.80
2019,03,18,08,53,8.90
2019,03,18,08,54,9.00
2019,03,18,08,55,9.00
2019,03,18,08,56,9.10
2019,03,18,08,57,9.20
2019,03,18,08,58,9.30
2019,03,18,08,59,9.40
2019,03,18,09,00,9.50
2019,03,18,09,01,9.60
2019,03,18,09,02,9.70
2019,03,18,09,03,9.70
2019,03,18,09,04,9.80
2019,03,18,09,05,9.90
2019,03,18,09,06,10.10
2019,03,18,09,07,10.20
2019,03,18,09,08,10.30
2019,03,18,09,09,10.40
2019,03,18,09,10,10.40
2019,03,18,09,11,10.60
2019,03,18,09,12,10.60
2019,03,18,09,13,10.70
2019,03,18,09,14,10.90
2019,03,18,09,15,10.90
2019,03,18,09,16,11.10
2019,03,18,09,17,11.10
2019,03,18,09,18,11.20
2019,03,18,09,19,11.30
2019,03,18,09,20,11.40
2019,03,18,09,21,11.50
2019,03,18,09,22,11.60
2019,03,18,09,23,11.60
2019,03,18,09,24,11.70
2019,03,18,09,25,11.80
2019,03,18,09,26,11.80
2019,03,18,09,27,11.90
2019,03,18,09,28,11.90
2019,03,18,09,29,12.00
2019,03,18,09,30,12.10
2019,03,18,09,31,12.10
2019,03,18,09,32,12.20
2019,03,18,09,33,12.30
2019,03,18,09,34,12.30
2019,03,18,09,35,12.40
2019,03,18,09,36,12.50
2019,03,18,09,37,12.60
2019,03,18,09,38,12.60
2019,03,18,09,39,12.70
2019,03,18,09,40,12.70
2019,03,18,09,41,12.80
2019,03,18,09,42,12.80
2019,03,18,09,43,12.80
2019,03,18,09,44,12.80
2019,03,18,09,45,12.90
2019,03,18,09,46,12.90
2019,03,18,09,47,13.00
2019,03,18,09,48,13.00
2019,03,18,09,49,13.00
2019,03,18,09,50,13.00
2019,03,18,09,51,13.10
2019,03,18,09,52,13.10
2019,03,18,09,53,13.10
2019,03,18,09,54,13.10
2019,03,18,09,55,13.10
2019,03,18,09,56,13.10
2019,03,18,09,57,13.10
2019,03,18,09,58,13.20
2019,03,18,09,59,13.20
2019,03,18,10,00,13.20
2019,03,18,10,01,13.20
2019,03,18,10,02,13.30
2019,03,18,10,03,13.30
2019,03,18,10,04,13.30
2019,03,18,10,05,13.20
2019,03,18,10,06,13.20
2019,03,18,10,07,13.20
2019,03,18,10,08,13.20
2019,03,18,10,09,13.20
2019,03,18,10,10,13.20
2019,03,18,10,11,13.30
2019,03,18,10,12,13.30
2019,03,18,10,13,13.30
2019,03,18,10,14,13.30
2019,03,18,10,15,13.30
2019,03,18,10,16,13.30
2019,03,18,10,17,13.30
2019,03,18,10,18,13.30
2019,03,18,10,19,13.30
2019,03,18,10,20,13.40
2019,03,18,10,21,13.50
2019,03,18,10,22,13.50
2019,03,18,10,23,13.60
2019,03,18,10,24,13.70
2019,03,18,10,25,13.70
2019,03,18,10,26,13.70
2019,03,18,10,27,13.70
2019,03,18,10,28,13.70
2019,03,18,10,29,13.70
2019,03,18,10,30,13.70
2019,03,18,10,31,13.70
2019,03,18,10,32,13.70
2019,03,18,10,33,13.70
2019,03,18,10,34,13.70
2019,03,18,10,35,13.70
2019,03,18,10,36,13.70
2019,03,18,10,37,13.70
2019,03,18,10,38,13.70
2019,03,18,10,39,13.70
2019,03,18,10,40,13.70
2019,03,18,10,41,13.70
2019,03,18,10,42,13.70
2019,03,18,10,43,13.70
2019,03,18,10,44,13.70
2019,03,18,10,45,13.70
2019,03,18,10,46,13.70
2019,03,18,10,47,13.70
2019,03,18,10,48,13.70
2019,03,18,10,49,13.80
2019,03,18,10,50,13.80
2019,03,18,10,51,13.80
2019,03,18,10,52,13.90
2019,03,18,10,53,14.00
2019,03,18,10,54,14.00
2019,03,18,10,55,14.10
2019,03,18,10,56,14.20
2019,03,18,10,57,14.20
2019,03,18,10,58,14.30
2019,03,18,10,59,14.40
2019,03,18,11,00,14.50
2019,03,18,11,01,14.50
2019,03,18,11,02,14.50
2019,03,18,11,03,14.50
2019,03,18,11,04,14.50
2019,03,18,11,05,14.50
2019,03,18,11,06,14.50
2019,03,18,11,07,14.50
2019,03,18,11,08,14.50
2019,03,18,11,09,14.50
2019,03,18,11,10,14.40
2019,03,18,11,11,14.40
2019,03,18,11,12,14.50
2019,03,18,11,13,14.50
2019,03,18,11,14,14.60
2019,03,18,11,15,14.60
2019,03,18,11,16,14.70
2019,03,18,11,17,14.70
2019,03,18,11,18,14.60
2019,03,18,11,19,14.60
2019,03,18,11,20,14.60
2019,03,18,11,21,14.50
2019,03,18,11,22,14.50
2019,03,18,11,23,14.60
2019,03,18,11,24,14.60
2019,03,18,11,25,14.70
2019,03,18,11,26,14.70
2019,03,18,11,27,14.80
2019,03,18,11,28,14.80
2019,03,18,11,29,14.80
2019,03,18,11,30,14.80
2019,03,18,11,31,14.80
2019,03,18,11,32,14.80
2019,03,18,11,33,14.80
2019,03,18,11,34,14.90
2019,03,18,11,35,15.00
2019,03,18,11,36,15.00
2019,03,18,11,37,15.00
2019,03,18,11,38,15.10
2019,03,18,11,39,15.10
2019,03,18,11,40,15.20
2019,03,18,11,41,15.20
2019,03,18,11,42,15.20
2019,03,18,11,43,15.20
2019,03,18,11,44,15.20
2019,03,18,11,45,15.20
2019,03,18,11,46,15.10
2019,03,18,11,47,15.00
2019,03,18,11,48,15.00
2019,03,18,11,49,15.00
2019,03,18,11,50,15.00
2019,03,18,11,51,15.00
2019,03,18,11,52,15.00
2019,03,18,11,53,15.00
2019,03,18,11,54,15.10
2019,03,18,11,55,15.20
2019,03,18,11,56,15.20
2019,03,18,11,57,15.20
2019,03,18,11,58,15.20
2019,03,18,11,59,15.10
2019,03,18,12,00,15.10
2019,03,18,12,01,15.00
2019,03,18,12,02,15.00
2019,03,18,12,03,15.10
2019,03,18,12,04,15.20
2019,03,18,12,05,15.20
2019,03,18,12,06,15.30
2019,03,18,12,07,15.40
2019,03,18,12,08,15.50
2019,03,18,12,09,15.60
2019,03,18,12,10,15.60
2019,03,18,12,11,15.60
2019,03,18,12,12,15.60
2019,03,18,12,13,15.60
2019,03,18,12,14,15.60
2019,03,18,12,15,15.60
2019,03,18,12,16,15.50
2019,03,18,12,17,15.50
2019,03,18,12,18,15.50
2019,03,18,12,19,15.40
2019,03,18,12,20,15.40
2019,03,18,12,21,15.40
2019,03,18,12,22,15.40
2019,03,18,12,23,15.50
2019,03,18,12,24,15.50
2019,03,18,12,25,15.50
2019,03,18,12,26,15.50
2019,03,18,12,27,15.60
2019,03,18,12,28,15.60
2019,03,18,12,29,15.70
2019,03,18,12,30,15.80
2019,03,18,12,31,15.80
2019,03,18,12,32,15.80
2019,03,18,12,33,15.90
2019,03,18,12,34,16.00
2019,03,18,12,35,16.10
2019,03,18,12,36,16.20
2019,03,18,12,37,16.30
2019,03,18,12,38,16.30
2019,03,18,12,39,16.30
2019,03,18,12,40,16.40
2019,03,18,12,41,16.40
2019,03,18,12,42,16.40
2019,03,18,12,43,16.50
2019,03,18,12,44,16.60
2019,03,18,12,45,16.70
2019,03,18,12,46,16.70
2019,03,18,12,47,16.70
2019,03,18,12,48,16.70
2019,03,18,12,49,16.70
2019,03,18,12,50,16.80
2019,03,18,12,51,16.80
2019,03,18,12,52,16.80
2019,03,18,12,53,16.80
2019,03,18,12,54,16.80
2019,03,18,12,55,16.90
2019,03,18,12,56,16.90
2019,03,18,12,57,16.90
2019,03,18,12,58,16.90
2019,03,18,12,59,16.90
2019,03,18,13,00,16.90
2019,03,18,13,01,16.90
2019,03,18,13,02,17.00
2019,03,18,13,03,17.00
2019,03,18,13,04,17.00
2019,03,18,13,05,17.00
2019,03,18,13,06,17.00
2019,03,18,13,07,17.00
2019,03,18,13,08,17.00
2019,03,18,13,09,17.00
2019,03,18,13,10,17.00
2019,03,18,13,11,17.00
2019,03,18,13,12,17.10
2019,03,18,13,13,17.20
2019,03,18,13,14,17.30
2019,03,18,13,15,17.30
2019,03,18,13,16,17.30
2019,03,18,13,17,17.30
2019,03,18,13,18,17.30
2019,03,18,13,19,17.30
2019,03,18,13,20,17.30
2019,03,18,13,21,17.30
2019,03,18,13,22,17.30
2019,03,18,13,23,17.30
2019,03,18,13,24,17.30
2019,03,18,13,25,17.30
2019,03,18,13,26,17.30
2019,03,18,13,27,17.30
2019,03,18,13,28,17.30
2019,03,18,13,29,17.30
2019,03,18,13,30,17.30
2019,03,18,13,31,17.30
2019,03,18,13,32,17.30
2019,03,18,13,33,17.30
2019,03,18,13,34,17.40
2019,03,18,13,35,17.40
2019,03,18,13,36,17.30
2019,03,18,13,37,17.30
2019,03,18,13,38,17.40
2019,03,18,13,39,17.40
2019,03,18,13,40,17.50
2019,03,18,13,41,17.50
2019,03,18,13,42,17.50
2019,03,18,13,43,17.50
2019,03,18,13,44,17.50
2019,03,18,13,45,17.50
2019,03,18,13,46,17.60
2019,03,18,13,47,17.50
2019,03,18,13,48,17.50
2019,03,18,13,49,17.50
2019,03,18,13,50,17.50
2019,03,18,13,51,17.50
2019,03,18,13,52,17.60
2019,03,18,13,53,17.70
2019,03,18,13,54,17.70
2019,03,18,13,55,17.80
2019,03,18,13,56,17.80
2019,03,18,13,57,17.80
2019,03,18,13,58,17.80
2019,03,18,13,59,17.80
2019,03,18,14,00,17.80
2019,03,18,14,01,17.90
2019,03,18,14,02,17.90
2019,03,18,14,03,17.90
2019,03,18,14,04,17.90
2019,03,18,14,05,17.90
2019,03,18,14,06,18.10
2019,03,18,14,07,18.10
2019,03,18,14,08,18.20
2019,03,18,14,09,18.20
2019,03,18,14,10,18.20
2019,03,18,14,11,18.30
2019,03,18,14,12,18.40
2019,03,18,14,13,18.40
2019,03,18,14,14,18.40
2019,03,18,14,15,18.40
2019,03,18,14,16,18.50
2019,03,18,14,17,18.50
2019,03,18,14,18,18.50
2019,03,18,14,19,18.50
2019,03,18,14,20,18.60
2019,03,18,14,21,18.70
2019,03,18,14,22,18.70
2019,03,18,14,23,18.70
2019,03,18,14,24,18.70
2019,03,18,14,25,18.70
2019,03,18,14,26,18.70
2019,03,18,14,27,18.70
2019,03,18,14,28,18.70
2019,03,18,14,29,18.80
2019,03,18,14,30,18.80
2019,03,18,14,31,18.90
2019,03,18,14,32,18.90
2019,03,18,14,33,18.90
2019,03,18,14,34,18.90
2019,03,18,14,35,18.90
2019,03,18,14,36,18.90
2019,03,18,14,37,18.90
2019,03,18,14,38,18.90
2019,03,18,14,39,18.90
2019,03,18,14,40,18.90
2019,03,18,14,41,18.90
2019,03,18,14,42,18.90
2019,03,18,14,43,18.90
2019,03,18,14,44,18.90
2019,03,18,14,45,18.90
2019,03,18,14,46,19.00
2019,03,18,14,47,19.10
2019,03,18,14,48,19.10
2019,03,18,14,49,19.10
2019,03,18,14,50,19.10
2019,03,18,14,51,19.10
2019,03,18,14,52,19.10
2019,03,18,14,53,19.10
2019,03,18,14,54,19.10
2019,03,18,14,55,19.10
2019,03,18,14,56,19.10
2019,03,18,14,57,19.10
2019,03,18,14,58,19.20
2019,03,18,14,59,19.20
2019,03,18,15,00,19.20
2019,03,18,15,01,19.20
2019,03,18,15,02,19.20
2019,03,18,15,03,19.20
2019,03,18,15,04,19.30
2019,03,18,15,05,19.40
2019,03,18,15,06,19.40
2019,03,18,15,07,19.50
2019,03,18,15,08,19.50
2019,03,18,15,09,19.50
2019,03,18,15,10,19.40
2019,03,18,15,11,19.40
2019,03,18,15,12,19.30
2019,03,18,15,13,19.30
2019,03,18,15,14,19.30
2019,03,18,15,15,19.30
2019,03,18,15,16,19.20
2019,03,18,15,17,19.20
2019,03,18,15,18,19.20
2019,03,18,15,19,19.20
2019,03,18,15,20,19.30
2019,03,18,15,21,19.40
2019,03,18,15,22,19.40
2019,03,18,15,23,19.50
2019,03,18,15,24,19.40
2019,03,18,15,25,19.40
2019,03,18,15,26,19.30
2019,03,18,15,27,19.40
2019,03,18,15,28,19.40
2019,03,18,15,29,19.50
2019,03,18,15,30,19.50
2019,03,18,15,31,19.50
2019,03,18,15,32,19.50
2019,03,18,15,33,19.60
2019,03,18,15,34,19.60
2019,03,18,15,35,19.50
2019,03,18,15,36,19.60
2019,03,18,15,37,19.60
2019,03,18,15,38,19.70
2019,03,18,15,39,19.60
2019,03,18,15,40,19.60
2019,03,18,15,41,19.70
2019,03,18,15,42,19.60
2019,03,18,15,43,19.60
2019,03,18,15,44,19.60
2019,03,18,15,45,19.60
2019,03,18,15,46,19.60
2019,03,18,15,47,19.60
2019,03,18,15,48,19.60
2019,03,18,15,49,19.70
2019,03,18,15,50,19.70
2019,03,18,15,51,19.70
2019,03,18,15,52,19.80
2019,03,18,15,53,19.90
2019,03,18,15,54,19.90
2019,03,18,15,55,19.90
2019,03,18,15,56,19.90
2019,03,18,15,57,19.90
2019,03,18,15,58,19.90
2019,03,18,15,59,19.90
2019,03,18,16,00,19.90
2019,03,18,16,01,19.90
2019,03,18,16,02,19.90
2019,03,18,16,03,19.90
2019,03,18,16,04,19.90
2019,03,18,16,05,19.90
2019,03,18,16,06,19.80
2019,03,18,16,07,19.80
2019,03,18,16,08,19.70
2019,03,18,16,09,19.70
2019,03,18,16,10,19.70
2019,03,18,16,11,19.70
2019,03,18,16,12,19.70
2019,03,18,16,13,19.70
2019,03,18,16,14,19.70
2019,03,18,16,15,19.70
2019,03,18,16,16,19.70
2019,03,18,16,17,19.70
2019,03,18,16,18,19.60
2019,03,18,16,19,19.60
2019,03,18,16,20,19.60
2019,03,18,16,21,19.70
2019,03,18,16,22,19.60
2019,03,18,16,23,19.60
2019,03,18,16,24,19.60
2019,03,18,16,25,19.50
2019,03,18,16,26,19.40
2019,03,18,16,27,19.40
2019,03,18,16,28,19.40
2019,03,18,16,29,19.40
2019,03,18,16,30,19.40
2019,03,18,16,31,19.30
2019,03,18,16,32,19.30
2019,03,18,16,33,19.30
2019,03,18,16,34,19.40
2019,03,18,16,35,19.40
2019,03,18,16,36,19.40
2019,03,18,16,37,19.40
2019,03,18,16,38,19.40
2019,03,18,16,39,19.30
2019,03,18,16,40,19.30
2019,03,18,16,41,19.30
2019,03,18,16,42,19.30
2019,03,18,16,43,19.30
2019,03,18,16,44,19.20
2019,03,18,16,45,19.20
2019,03,18,16,46,19.20
2019,03,18,16,47,19.20
2019,03,18,16,48,19.20
2019,03,18,16,49,19.20
2019,03,18,16,50,19.20
2019,03,18,16,51,19.20
2019,03,18,16,52,19.20
2019,03,18,16,53,19.20
2019,03,18,16,54,19.20
2019,03,18,16,55,19.20
2019,03,18,16,56,19.20
2019,03,18,16,57,19.30
2019,03,18,16,58,19.30
2019,03,18,16,59,19.30
2019,03,18,17,00,19.40
2019,03,18,17,01,19.40
2019,03,18,17,02,19.40
2019,03,18,17,03,19.40
2019,03,18,17,04,19.50
2019,03,18,17,05,19.50
2019,03,18,17,06,19.50
2019,03,18,17,07,19.50
2019,03,18,17,08,19.50
2019,03,18,17,09,19.40
2019,03,18,17,10,19.30
2019,03,18,17,11,19.30
2019,03,18,17,12,19.20
2019,03,18,17,13,19.20
2019,03,18,17,14,19.20
2019,03,18,17,15,19.10
2019,03,18,17,16,19.10
2019,03,18,17,17,19.10
2019,03,18,17,18,19.10
2019,03,18,17,19,19.10
2019,03,18,17,20,19.00
2019,03,18,17,21,18.90
2019,03,18,17,22,18.90
2019,03,18,17,23,18.90
2019,03,18,17,24,18.80
2019,03,18,17,25,18.80
2019,03,18,17,26,18.70
2019,03,18,17,27,18.70
2019,03,18,17,28,18.70
2019,03,18,17,29,18.60
2019,03,18,17,30,18.60
2019,03,18,17,31,18.60
2019,03,18,17,32,18.60
2019,03,18,17,33,18.60
2019,03,18,17,34,18.60
2019,03,18,17,35,18.60
2019,03,18,17,36,18.50
2019,03,18,17,37,18.50
2019,03,18,17,38,18.50
2019,03,18,17,39,18.50
2019,03,18,17,40,18.50
2019,03,18,17,41,18.50
2019,03,18,17,42,18.50
2019,03,18,17,43,18.50